Torna al catalogo

COSMOS 861

AttivoMilitareLEO
NORAD 9494·PAYLOAD·🇷🇺 Russia

Lanciato Oct 21, 1976 da Baikonur Cosmodrome

Loading…

Prossimi Passaggi (prossime 24 ore)

TLE

AggiornatoSource: Space-Track

Epoca: Sep 14, 2026, 05:14 UTC

1 09494U 76104A   26257.21861251 -.00000072  00000-0  15496-4 0  9991
2 09494  64.8592 189.5296 0040933 164.2578 195.9763 13.81727953518240

Traccia COSMOS 861 in tempo reale con AllMySat

Download on the App Store